DW3664 Weather Reports


time (UTC)temp
C
wind
direction
speed
KPH
gust
KPH
rain 1hr
cm
rain 24hr
cm
rain mn
cm
humidity
%
barometer
mb
20260503181111 26 356 4.8 9.7 0.00 0.00 0.00 35 1010.3
20260503180218 26 115 1.6 8.0 0.00 0.00 0.00 36 1010.3
20260503175748 25 3 3.2 9.7 0.00 0.00 0.00 36 1010.3
20260503174859 25 67 3.2 8.0 0.00 0.00 0.00 37 1010.3
20260503174218 25 67 3.2 9.7 0.00 0.00 0.00 39 1010.6
20260503173538 24 21 3.2 11.3 0.00 0.00 0.00 40 1010.6
20260503172858 24 357 4.8 9.7 0.00 0.00 0.00 40 1010.6
20260503172218 24 11 4.8 9.7 0.00 0.00 0.00 41 1010.6
20260503171538 23 23 3.2 8.0 0.00 0.00 0.00 41 1010.6
20260503170858 23 282 3.2 8.0 0.00 0.00 0.00 44 1010.6
20260503170218 22 349 1.6 9.7 0.00 0.00 0.00 45 1010.6
20260503160218 20 199 0.0 3.2 0.00 0.00 0.00 54 1011.0
20260503150858 16 145 1.6 1.6 0.00 0.00 0.00 73 1011.0
20260503150218 15 145 0.0 3.2 0.00 0.00 0.00 76 1011.3
20260503140218 11 163 1.6 4.8 0.00 0.00 0.00 88 1011.0
20260503130858 10 153 1.6 1.6 0.00 0.00 0.00 90 1011.0
20260503130218 10 324 1.6 1.6 0.00 0.00 0.00 90 1010.6
20260503120218 10 192 1.6 1.6 0.00 0.00 0.00 90 1010.6
20260503110217 11 220 0.0 3.2 0.00 0.00 0.00 89 1011.0
20260503100218 11 11 0.0 1.6 0.00 0.00 0.00 88 1011.0
20260503090218 12 126 1.6 1.6 0.00 0.00 0.00 88 1011.3
20260503080858 13 237 1.6 1.6 0.00 0.00 0.00 85 1011.7
20260503080218 13 287 0.0 1.6 0.00 0.00 0.00 84 1011.3
20260503072858 13 129 1.6 3.2 0.00 0.00 0.00 82 1011.7
20260503072218 14 118 1.6 1.6 0.00 0.00 0.00 82 1011.7
20260503071538 14 66 1.6 3.2 0.00 0.00 0.00 82 1011.7
20260503070858 14 87 1.6 3.2 0.00 0.00 0.00 82 1011.7
20260503070218 14 171 0.0 3.2 0.00 0.00 0.00 81 1011.7
20260503060218 15 181 1.6 3.2 0.00 0.00 0.18 80 1011.3
20260503054858 15 202 1.6 6.4 0.00 0.00 0.18 79 1011.3
20260503054218 15 229 1.6 3.2 0.00 0.00 0.18 77 1011.3
20260503053538 15 291 1.6 4.8 0.00 0.00 0.18 76 1011.3
20260503052858 16 307 1.6 4.8 0.00 0.00 0.18 75 1011.3
20260503052218 16 318 3.2 4.8 0.00 0.00 0.18 74 1011.7
20260503051538 16 150 1.6 3.2 0.00 0.00 0.18 73 1012.0
20260503050858 16 200 1.6 3.2 0.00 0.00 0.18 73 1012.0
20260503050219 16 317 1.6 3.2 0.00 0.00 0.18 73 1011.7
20260503045538 16 236 1.6 6.4 0.00 0.00 0.18 72 1011.7
20260503044858 16 351 3.2 6.4 0.00 0.00 0.18 71 1011.7
20260503044218 17 248 1.6 6.4 0.00 0.00 0.18 71 1011.7
20260503043538 17 4 4.8 6.4 0.00 0.00 0.18 70 1011.7
20260503042858 17 244 1.6 6.4 0.00 0.00 0.18 70 1012.0
20260503042218 17 17 3.2 6.4 0.00 0.00 0.18 70 1011.7
20260503041538 17 225 0.0 6.4 0.00 0.00 0.18 69 1012.0
20260503040858 17 350 1.6 8.0 0.00 0.00 0.18 69 1012.0
20260503040218 17 1 4.8 8.0 0.00 0.00 0.18 69 1011.7
20260503035538 17 179 1.6 11.3 0.00 0.00 0.18 69 1011.7
20260503034858 17 359 6.4 11.3 0.00 0.00 0.18 68 1011.7
20260503034218 17 323 3.2 6.4 0.00 0.00 0.18 68 1011.7
20260503033538 17 195 1.6 8.0 0.00 0.00 0.18 67 1011.3
20260503032858 17 5 4.8 6.4 0.00 0.00 0.18 66 1011.3
20260503032430 18 167 3.2 6.4 0.00 0.00 0.18 65 1011.7
20260503031538 18 317 1.6 4.8 0.00 0.00 0.18 65 1011.3
20260503030858 18 243 1.6 8.0 0.00 0.00 0.18 64 1011.3
20260503030218 18 171 3.2 12.9 0.00 0.00 0.18 64 1011.3
20260503025538 18 163 6.4 12.9 0.00 0.00 0.18 62 1011.3
20260503024858 18 155 4.8 14.5 0.00 0.00 0.18 62 1011.3
20260503024218 19 178 6.4 14.5 0.00 0.00 0.18 62 1011.3
20260503023538 20 171 4.8 12.9 0.00 0.00 0.18 61 1011.0
20260503022858 20 170 6.4 20.9 0.00 0.00 0.18 59 1011.3
20260503022218 20 157 8.0 20.9 0.00 0.00 0.18 58 1011.0
20260503021538 20 165 8.0 17.7 0.00 0.00 0.18 58 1011.0
20260503021111 20 171 6.4 12.9 0.00 0.00 0.18 58 1011.0
20260503020218 20 175 6.4 9.7 0.00 0.00 0.18 58 1010.6
20260503015538 20 169 4.8 11.3 0.00 0.00 0.18 58 1010.3
20260503014858 20 170 6.4 11.3 0.00 0.00 0.18 58 1010.3
20260503014218 20 177 4.8 9.7 0.00 0.00 0.18 57 1010.3
20260503013538 20 161 4.8 9.7 0.00 0.00 0.18 56 1010.3
20260503012858 21 164 3.2 9.7 0.00 0.00 0.18 56 1010.3
20260503012218 21 168 4.8 9.7 0.00 0.00 0.18 56 1010.3
20260503011538 21 175 3.2 8.0 0.00 0.00 0.18 56 1010.3
20260503010858 21 168 4.8 8.0 0.00 0.00 0.18 55 1010.3
20260503010218 21 171 4.8 8.0 0.00 0.00 0.18 55 1010.3
20260503005538 21 171 4.8 6.4 0.00 0.00 0.18 54 1010.3
20260503005109 21 168 3.2 6.4 0.00 0.00 0.18 53 1010.3
20260503004218 22 90 1.6 3.2 0.00 0.00 0.18 50 1010.3
20260503003538 22 229 1.6 6.4 0.00 0.00 0.18 50 1010.3
20260503002858 21 356 1.6 4.8 0.00 0.00 0.18 50 1010.3
20260503002218 21 107 1.6 6.4 0.00 0.00 0.18 51 1010.3
20260503001538 21 120 3.2 6.4 0.00 0.00 0.18 51 1010.3
20260503000859 22 157 1.6 6.4 0.00 0.00 0.18 50 1010.3
20260503000218 21 26 1.6 6.4 0.00 0.00 0.18 50 1010.3
20260502235538 22 276 1.6 6.4 0.00 0.00 0.18 50 1010.6
20260502234858 22 203 1.6 6.4 0.00 0.00 0.18 50 1010.6
20260502234218 22 209 1.6 6.4 0.00 0.00 0.18 50 1010.6
20260502233538 21 199 1.6 4.8 0.00 0.00 0.18 51 1011.0
20260502233111 21 260 1.6 6.4 0.00 0.00 0.18 51 1011.0
20260502232218 21 275 3.2 9.7 0.00 0.00 0.18 51 1011.0
20260502231538 21 282 3.2 9.7 0.00 0.00 0.18 51 1011.0
20260502230858 21 300 4.8 8.0 0.00 0.00 0.18 51 1011.0
20260502230231 20 282 3.2 6.4 0.00 0.00 0.18 53 1011.3
20260502225538 20 243 3.2 9.7 0.00 0.00 0.18 53 1011.3
20260502224858 20 1 4.8 9.7 0.00 0.00 0.18 52 1011.3
20260502224218 20 273 3.2 8.0 0.00 0.00 0.18 52 1011.7
20260502223538 20 319 3.2 8.0 0.00 0.00 0.18 52 1011.7
20260502222858 20 268 3.2 6.4 0.00 0.00 0.18 52 1012.0
20260502222218 20 274 1.6 8.0 0.00 0.00 0.18 52 1012.0
20260502221538 20 4 4.8 8.0 0.00 0.00 0.18 52 1012.0
20260502221109 20 214 1.6 9.7 0.00 0.00 0.18 52 1012.0
20260502220219 20 357 4.8 9.7 0.00 0.00 0.18 52 1012.4
20260502215750 20 240 3.2 11.3 0.00 0.00 0.18 53 1012.4
20260502214858 18 339 4.8 11.3 0.00 0.00 0.18 54 1012.4
20260502214218 20 207 3.2 6.4 0.00 0.00 0.18 52 1012.4
20260502213538 19 243 1.6 6.4 0.00 0.00 0.18 54 1012.4
20260502212858 18 245 3.2 9.7 0.00 0.00 0.18 56 1012.7
20260502212428 18 300 6.4 9.7 0.00 0.00 0.18 56 1013.0
20260502211538 18 94 3.2 11.3 0.00 0.00 0.18 55 1013.0
20260502210858 18 297 4.8 9.7 0.00 0.00 0.18 56 1013.0
20260502210430 17 222 1.6 11.3 0.00 0.00 0.18 57 1013.0
20260502205538 17 275 3.2 9.7 0.00 0.00 0.18 57 1013.4
20260502204858 17 10 4.8 9.7 0.00 0.00 0.18 57 1013.4
20260502204218 17 224 3.2 6.4 0.00 0.00 0.18 58 1013.7
20260502203538 17 137 1.6 6.4 0.00 0.00 0.18 57 1013.7
20260502202858 17 197 3.2 9.7 0.00 0.00 0.18 58 1013.7
20260502202429 16 50 4.8 9.7 0.00 0.00 0.18 59 1013.7
20260502201750 17 20 3.2 9.7 0.00 0.00 0.18 59 1013.7
20260502200858 16 70 1.6 9.7 0.00 0.00 0.18 60 1013.7
20260502200218 16 133 1.6 11.3 0.00 0.00 0.18 61 1013.7
20260502195538 15 19 3.2 12.9 0.00 0.00 0.18 64 1013.7
20260502194858 16 297 6.4 12.9 0.00 0.00 0.18 63 1014.1
20260502194428 15 260 8.0 12.9 0.00 0.00 0.18 66 1014.4
20260502193538 14 8 3.2 11.3 0.00 0.00 0.18 69 1014.4
20260502192858 14 8 6.4 11.3 0.00 0.00 0.18 66 1014.4
20260502192430 13 13 3.2 9.7 0.00 0.00 0.18 73 1014.4
20260502191538 13 322 1.6 9.7 0.00 0.00 0.18 73 1014.7
20260502190858 12 288 4.8 9.7 0.00 0.00 0.18 72 1014.7
20260502190218 12 260 4.8 8.0 0.00 0.00 0.18 71 1015.1
20260502185538 12 263 4.8 8.0 0.00 0.00 0.18 74 1015.1
20260502184858 12 256 3.2 9.7 0.00 0.00 0.18 75 1015.1
20260502184428 12 280 1.6 9.7 0.00 0.00 0.18 78 1015.1
20260502183538 12 242 3.2 9.7 0.00 0.00 0.18 77 1015.1
20260502182858 12 257 1.6 6.4 0.00 0.00 0.18 80 1015.1
20260502182218 12 298 3.2 6.4 0.00 0.00 0.18 79 1015.1
20260502181538 12 296 1.6 6.4 0.00 0.00 0.18 83 1014.7